Regional Weather Roundup
Issued by NWS

Home | Current Version | Previous Version | Graphics & Text | Print | Product List | Glossary On
Versions: 1 2 3 4 5 6 7 8 9 10 11 12 13 14 15 16 17 18 19 20 21 22 23 24 25 26 27 28 29 30 31 32 33 34 35 36 37 38 39 40 41 42 43 44 45 46 47 48 49 50
000
ASUS43 KFSD 311310
RWRSD

WEATHER ROUNDUP FOR SOUTH DAKOTA
NATIONAL WEATHER SERVICE SIOUX FALLS SD
800 AM CDT THU JUL 31 2014

NOTE: "FAIR" INDICATES FEW OR NO CLOUDS BELOW 12,000 FEET WITH NO
SIGNIFICANT WEATHER AND/OR OBSTRUCTIONS TO VISIBILITY.


SDZ001>005-009-010-012>017-311400-
NORTHWEST AND NORTH CENTRAL SOUTH DAKOTA

CITY           SKY/WX    TMP DP  RH WIND       PRES   REMARKS
BUFFALO          N/A     63  52  67 CALM      30.13R
FAITH            N/A     60  53  77 NW8       30.14R
MOBRIDGE       SUNNY     63  55  75 E3        30.09R
$$

SDZ012>016-024>037-041>051-057-063-072>074-311400-
SOUTHWEST AND SOUTH CENTRAL SOUTH DAKOTA

CITY           SKY/WX    TMP DP  RH WIND       PRES   REMARKS
RAPID CTY ARPT SUNNY     62  48  60 NW6       30.17S
PIERRE         SUNNY     64  56  75 N3        30.08R
CUSTER         SUNNY     57  40  52 NW5       30.29S
ELLSWORTH AFB  SUNNY     61  50  67 NW1       30.17R
PHILIP         SUNNY     59  53  80 W5        30.12R
PINE RIDGE     SUNNY     51  48  89 CALM      30.18S
WINNER         FAIR      60  54  80 NW8       30.08R
$$

SDZ004>011-016>023-039-040-311400-
NORTHEAST SOUTH DAKOTA

CITY           SKY/WX    TMP DP  RH WIND       PRES   REMARKS
ABERDEEN       MOSUNNY   63  57  81 CALM      30.08F
WATERTOWN      SUNNY     59  54  83 CALM      30.09S
SISSETON         N/A     61  58  90 NW3       30.06S
$$

SDZ017-020-022-023-036>040-048>070-311400-
SOUTHEAST SOUTH DAKOTA

CITY           SKY/WX    TMP DP  RH WIND       PRES   REMARKS
SIOUX FALLS    PTSUNNY   63  58  83 CALM      30.09S
HURON          CLOUDY    60  57  89 S3        30.07F
CHAMBERLAIN    SUNNY     66  57  72 E5        30.06R
MITCHELL       CLOUDY    66  61  84 SE8       30.06F
YANKTON        PTSUNNY   61  57  88 NE5       30.08F
$$

ABBREVIATIONS USED IN REMARKS
   TC - TEMPERATURE IN CELSIUS
  WCI - WIND CHILL INDEX
   HX - HEAT INDEX
  VSB - VISIBILITY



USA.gov is the U.S. government's official web portal to all federal, state and local government web resources and services.